Location: ????????
(56.1167°N, 38.6333°E)
Time: 22:23:35
(UTC+00:00)

Cosmos 676 Rocket - Pass Details

Date: 18 November 2025
Orbit: 750 x 779 km, 74.0° (Epoch: 06 December)

Event Time Altitude Azimuth Distance (km) Brightness Sun altitude
Rises 16:19:20 0° 202° (SSW) 3,252 7.5 -25.5°
Reaches altitude 10° 16:21:43 10° 201° (SSW) 2,327 6.7 -25.8°
Enters shadow 16:26:26 69° 176° (S) 831 4.0 -26.5°
